Tracking 29892 objects as of 21-Nov-2024
HD Live streaming from Space Station
objects crossing your sky now

STARLINK-4058

Track STARLINK-4058 now!
10-day predictions
STARLINK-4058 is classified as:


NORAD ID: 53266
Int'l Code: 2022-086AA
Perigee: 545.8 km
Apogee: 547.9 km
Inclination: 53.2 °
Period: 95.4 minutes
Semi major axis: 6917 km
RCS: Unknown
Launch date: July 24, 2022
Source: United States (US)
Launch site: AIR FORCE EASTERN TEST RANGE (AFETR)
Your satellite tracking list
Your tracking list is empty




NASA's NSSDC Master Catalog

Two Line Element Set (TLE):
1 53266U 22086AA  24325.58159616  .00000311  00000-0  37651-4 0  9998
2 53266  53.2161 162.4717 0001514  90.6787 269.4379 15.08843335129314
Source of the keplerian elements: AFSPC